Time,TemperatureF,DewpointF,PressureIn,WindDirection,WindDirectionDegrees,WindSpeedMPH,WindSpeedGustMPH,Humidity,HourlyPrecipIn,Conditions,Clouds,dailyrainin,SoftwareType,DateUTC
2013-02-20 00:03:00,8.0,2.8,30.23,NW,315,9.0,9.0,79,0.00,,,0.00,Wunderground v.1.15,2013-02-20 06:03:00,
2013-02-20 00:09:00,8.0,2.8,30.23,NW,305,6.0,9.0,79,0.00,,,0.00,Wunderground v.1.15,2013-02-20 06:09:00,
2013-02-20 00:14:00,7.9,2.7,30.23,NW,311,6.0,10.0,79,0.00,,,0.00,Wunderground v.1.15,2013-02-20 06:14:00,
2013-02-20 00:20:00,7.7,2.5,30.24,NNW,334,6.0,6.0,79,0.00,,,0.00,Wunderground v.1.15,2013-02-20 06:20:00,
2013-02-20 00:25:00,7.7,2.5,30.24,NW,315,3.0,6.0,79,0.00,,,0.00,Wunderground v.1.15,2013-02-20 06:25:00,
2013-02-20 00:31:00,7.7,2.5,30.24,NNW,336,7.0,7.0,79,0.00,,,0.00,Wunderground v.1.15,2013-02-20 06:31:00,
2013-02-20 00:36:00,7.7,2.5,30.24,NNW,342,7.0,7.0,79,0.00,,,0.00,Wunderground v.1.15,2013-02-20 06:36:00,
2013-02-20 00:41:00,7.6,2.4,30.25,NW,323,5.0,6.0,79,0.00,,,0.00,Wunderground v.1.15,2013-02-20 06:41:00,
2013-02-20 00:46:00,7.6,2.4,30.25,NNW,333,5.0,6.0,79,0.00,,,0.00,Wunderground v.1.15,2013-02-20 06:46:00,
2013-02-20 00:51:00,7.6,2.4,30.25,NW,313,6.0,7.0,79,0.00,,,0.00,Wunderground v.1.15,2013-02-20 06:51:00,
2013-02-20 00:56:00,7.5,2.3,30.26,NW,309,3.0,7.0,79,0.00,,,0.00,Wunderground v.1.15,2013-02-20 06:56:00,
2013-02-20 01:01:00,7.5,2.3,30.25,NNW,331,4.0,5.0,79,0.00,,,0.00,Wunderground v.1.15,2013-02-20 07:01:00,
2013-02-20 01:07:00,7.3,2.4,30.26,WNW,286,5.0,5.0,80,0.00,,,0.00,Wunderground v.1.15,2013-02-20 07:07:00,
2013-02-20 01:12:00,7.3,2.2,30.26,NW,325,5.0,8.0,79,0.00,,,0.00,Wunderground v.1.15,2013-02-20 07:12:00,
2013-02-20 01:17:00,7.3,2.4,30.26,NNW,327,6.0,8.0,80,0.00,,,0.00,Wunderground v.1.15,2013-02-20 07:17:00,
2013-02-20 01:22:00,7.2,2.1,30.27,WNW,294,6.0,6.0,79,0.00,,,0.00,Wunderground v.1.15,2013-02-20 07:22:00,
2013-02-20 01:27:00,7.2,2.1,30.27,NW,321,6.0,6.0,79,0.00,,,0.00,Wunderground v.1.15,2013-02-20 07:27:00,
2013-02-20 01:33:00,7.1,2.2,30.27,NW,317,4.0,6.0,80,0.00,,,0.00,Wunderground v.1.15,2013-02-20 07:33:00,
2013-02-20 01:38:00,7.0,2.1,30.27,NW,305,5.0,11.0,80,0.00,,,0.00,Wunderground v.1.15,2013-02-20 07:38:00,
2013-02-20 01:43:00,7.0,2.1,30.27,NW,311,7.0,7.0,80,0.00,,,0.00,Wunderground v.1.15,2013-02-20 07:43:00,
2013-02-20 01:48:00,7.0,2.1,30.28,NW,311,9.0,9.0,80,0.00,,,0.00,Wunderground v.1.15,2013-02-20 07:48:00,
2013-02-20 01:53:00,6.9,2.0,30.28,NW,318,4.0,7.0,80,0.00,,,0.00,Wunderground v.1.15,2013-02-20 07:53:00,
2013-02-20 01:59:00,7.0,2.1,30.28,WNW,299,7.0,10.0,80,0.00,,,0.00,Wunderground v.1.15,2013-02-20 07:59:00,
2013-02-20 02:05:00,7.1,2.0,30.29,NW,306,7.0,11.0,79,0.00,,,0.00,Wunderground v.1.15,2013-02-20 08:05:00,
2013-02-20 02:10:00,7.0,1.9,30.28,WNW,303,7.0,7.0,79,0.00,,,0.00,Wunderground v.1.15,2013-02-20 08:10:00,
2013-02-20 02:15:00,7.0,1.9,30.29,NNW,340,6.0,12.0,79,0.00,,,0.00,Wunderground v.1.15,2013-02-20 08:15:00,
2013-02-20 02:20:00,7.0,1.9,30.28,NW,325,4.0,6.0,79,0.00,,,0.00,Wunderground v.1.15,2013-02-20 08:20:00,
2013-02-20 02:26:00,6.9,1.8,30.29,NNW,340,3.0,10.0,79,0.00,,,0.00,Wunderground v.1.15,2013-02-20 08:26:00,
2013-02-20 02:31:00,6.8,1.7,30.29,NW,323,6.0,10.0,79,0.00,,,0.00,Wunderground v.1.15,2013-02-20 08:31:00,
2013-02-20 02:36:00,6.9,1.8,30.29,NNW,336,7.0,10.0,79,0.00,,,0.00,Wunderground v.1.15,2013-02-20 08:36:00,
2013-02-20 02:42:00,6.8,1.7,30.30,WNW,298,5.0,9.0,79,0.00,,,0.00,Wunderground v.1.15,2013-02-20 08:42:00,
2013-02-20 02:47:00,6.8,1.7,30.30,NW,311,5.0,10.0,79,0.00,,,0.00,Wunderground v.1.15,2013-02-20 08:47:00,
2013-02-20 02:52:00,6.8,1.7,30.30,West,271,4.0,7.0,79,0.00,,,0.00,Wunderground v.1.15,2013-02-20 08:52:00,
2013-02-20 02:57:00,6.8,1.7,30.30,NW,309,9.0,10.0,79,0.00,,,0.00,Wunderground v.1.15,2013-02-20 08:57:00,
2013-02-20 03:03:00,6.8,1.7,30.30,NNW,330,5.0,7.0,79,0.00,,,0.00,Wunderground v.1.15,2013-02-20 09:03:00,
2013-02-20 03:08:00,6.8,1.9,30.30,WNW,298,6.0,12.0,80,0.00,,,0.00,Wunderground v.1.15,2013-02-20 09:08:00,
2013-02-20 03:13:00,6.8,1.9,30.30,NW,311,5.0,12.0,80,0.00,,,0.00,Wunderground v.1.15,2013-02-20 09:13:00,
2013-02-20 03:18:00,6.7,1.8,30.30,NW,318,9.0,12.0,80,0.00,,,0.00,Wunderground v.1.15,2013-02-20 09:18:00,
2013-02-20 03:23:00,6.7,1.8,30.30,North,351,5.0,10.0,80,0.00,,,0.00,Wunderground v.1.15,2013-02-20 09:23:00,
2013-02-20 03:29:00,6.7,1.8,30.30,WNW,301,5.0,13.0,80,0.00,,,0.00,Wunderground v.1.15,2013-02-20 09:29:00,
2013-02-20 03:35:00,6.6,1.7,30.30,NNW,336,9.0,11.0,80,0.00,,,0.00,Wunderground v.1.15,2013-02-20 09:35:00,
2013-02-20 03:40:00,6.6,1.7,30.30,NW,304,6.0,7.0,80,0.00,,,0.00,Wunderground v.1.15,2013-02-20 09:40:00,
2013-02-20 03:45:00,6.6,1.7,30.30,NW,317,6.0,11.0,80,0.00,,,0.00,Wunderground v.1.15,2013-02-20 09:45:00,
2013-02-20 03:50:00,6.6,1.7,30.31,NW,324,4.0,6.0,80,0.00,,,0.00,Wunderground v.1.15,2013-02-20 09:50:00,
2013-02-20 03:55:00,6.5,1.6,30.31,NW,308,10.0,11.0,80,0.00,,,0.00,Wunderground v.1.15,2013-02-20 09:55:00,
2013-02-20 04:00:00,6.5,1.6,30.31,North,349,9.0,9.0,80,0.00,,,0.00,Wunderground v.1.15,2013-02-20 10:00:00,
2013-02-20 04:05:00,6.6,1.7,30.31,NNW,331,6.0,11.0,80,0.00,,,0.00,Wunderground v.1.15,2013-02-20 10:05:00,
2013-02-20 04:10:00,6.6,1.7,30.32,NNE,12,6.0,6.0,80,0.00,,,0.00,Wunderground v.1.15,2013-02-20 10:10:00,
2013-02-20 04:15:00,6.5,1.6,30.32,WNW,296,4.0,10.0,80,0.00,,,0.00,Wunderground v.1.15,2013-02-20 10:15:00,
2013-02-20 04:20:00,6.5,1.6,30.32,North,350,5.0,10.0,80,0.00,,,0.00,Wunderground v.1.15,2013-02-20 10:20:00,
2013-02-20 04:25:00,6.4,1.5,30.32,NNW,347,4.0,10.0,80,0.00,,,0.00,Wunderground v.1.15,2013-02-20 10:25:00,
2013-02-20 04:31:00,6.5,1.6,30.33,NW,323,5.0,9.0,80,0.00,,,0.00,Wunderground v.1.15,2013-02-20 10:31:00,
2013-02-20 04:37:00,6.4,1.5,30.33,NW,315,6.0,11.0,80,0.00,,,0.00,Wunderground v.1.15,2013-02-20 10:37:00,
2013-02-20 04:43:00,4.4,0.1,30.33,NNW,329,0.0,4.0,82,0.00,,,0.00,Wunderground v.1.15,2013-02-20 10:43:00,
2013-02-20 04:48:00,4.4,0.1,30.33,NW,320,0.0,4.0,82,0.00,,,0.00,Wunderground v.1.15,2013-02-20 10:48:00,
2013-02-20 04:53:00,4.4,0.1,30.33,NW,304,0.0,2.0,82,0.00,,,0.00,Wunderground v.1.15,2013-02-20 10:53:00,
2013-02-20 04:59:00,4.4,0.1,30.34,WNW,296,0.0,3.0,82,0.00,,,0.00,Wunderground v.1.15,2013-02-20 10:59:00,
2013-02-20 05:04:00,4.4,0.1,30.33,NNW,331,2.0,2.0,82,0.00,,,0.00,Wunderground v.1.15,2013-02-20 11:04:00,
2013-02-20 05:09:00,4.4,0.1,30.34,NNW,327,2.0,2.0,82,0.00,,,0.00,Wunderground v.1.15,2013-02-20 11:09:00,
2013-02-20 05:15:00,4.4,0.1,30.33,NNW,337,0.0,4.0,82,0.00,,,0.00,Wunderground v.1.15,2013-02-20 11:15:00,
2013-02-20 05:20:00,4.3,0.0,30.33,NNW,342,0.0,5.0,82,0.00,,,0.00,Wunderground v.1.15,2013-02-20 11:20:00,
2013-02-20 05:25:00,4.3,0.0,30.33,North,360,0.0,3.0,82,0.00,,,0.00,Wunderground v.1.15,2013-02-20 11:25:00,
2013-02-20 05:30:00,4.3,0.0,30.34,WNW,296,0.0,2.0,82,0.00,,,0.00,Wunderground v.1.15,2013-02-20 11:30:00,
2013-02-20 05:35:00,4.2,-0.1,30.34,West,279,0.0,2.0,82,0.00,,,0.00,Wunderground v.1.15,2013-02-20 11:35:00,
2013-02-20 05:41:00,4.2,-0.1,30.34,WNW,298,0.0,2.0,82,0.00,,,0.00,Wunderground v.1.15,2013-02-20 11:41:00,
2013-02-20 05:46:00,4.2,-0.1,30.34,NNW,331,0.0,2.0,82,0.00,,,0.00,Wunderground v.1.15,2013-02-20 11:46:00,
2013-02-20 05:51:00,4.1,-0.2,30.35,NW,315,1.0,1.0,82,0.00,,,0.00,Wunderground v.1.15,2013-02-20 11:51:00,
2013-02-20 05:56:00,4.1,-0.2,30.35,West,275,0.0,4.0,82,0.00,,,0.00,Wunderground v.1.15,2013-02-20 11:56:00,
2013-02-20 06:00:00,4.0,-0.3,30.35,NW,315,0.0,-999.0,82,0.00,,,0.01,Wunderground v.1.15,2013-02-20 12:00:00,
2013-02-20 06:01:00,4.1,-0.2,30.35,NW,313,0.0,3.0,82,0.00,,,0.00,Wunderground v.1.15,2013-02-20 12:01:00,
2013-02-20 06:05:00,4.0,-0.3,30.35,WNW,293,2.0,-999.0,82,0.00,,,0.01,Wunderground v.1.15,2013-02-20 12:05:00,
2013-02-20 06:10:00,4.0,-0.3,30.35,NW,315,1.0,-999.0,82,0.00,,,0.01,Wunderground v.1.15,2013-02-20 12:10:00,
2013-02-20 06:15:00,4.0,-0.3,30.35,N/A,-737280,0.0,-999.0,82,0.00,,,0.01,Wunderground v.1.15,2013-02-20 12:15:00,
2013-02-20 06:20:00,3.9,-0.4,30.35,N/A,-737280,0.0,-999.0,82,0.00,,,0.01,Wunderground v.1.15,2013-02-20 12:20:00,
2013-02-20 06:30:00,3.8,-0.5,30.36,N/A,-737280,0.0,-999.0,82,0.00,,,0.01,Wunderground v.1.15,2013-02-20 12:30:00,
2013-02-20 06:35:00,3.8,-0.5,30.37,NW,315,0.0,-999.0,82,0.00,,,0.01,Wunderground v.1.15,2013-02-20 12:35:00,
2013-02-20 06:40:00,3.8,-0.5,30.36,West,270,2.0,-999.0,82,0.00,,,0.01,Wunderground v.1.15,2013-02-20 12:40:00,
2013-02-20 06:45:00,3.8,-0.5,30.37,N/A,-737280,0.0,-999.0,82,0.00,,,0.01,Wunderground v.1.15,2013-02-20 12:45:00,
2013-02-20 06:50:00,3.8,-0.5,30.36,N/A,-737280,0.0,-999.0,82,0.00,,,0.01,Wunderground v.1.15,2013-02-20 12:50:00,
2013-02-20 06:55:00,3.8,-0.2,30.37,N/A,-737280,0.0,-999.0,83,0.00,,,0.01,Wunderground v.1.15,2013-02-20 12:55:00,
2013-02-20 07:00:00,3.9,-0.1,30.37,NW,315,1.0,-999.0,83,0.00,,,0.01,Wunderground v.1.15,2013-02-20 13:00:00,
2013-02-20 07:05:00,4.0,0.0,30.37,NNW,338,1.0,-999.0,83,0.00,,,0.01,Wunderground v.1.15,2013-02-20 13:05:00,
2013-02-20 07:10:00,4.2,0.2,30.37,West,270,0.0,-999.0,83,0.00,,,0.01,Wunderground v.1.15,2013-02-20 13:10:00,
2013-02-20 07:15:00,4.3,0.3,30.37,N/A,-737280,0.0,-999.0,83,0.00,,,0.01,Wunderground v.1.15,2013-02-20 13:15:00,
2013-02-20 07:20:00,4.4,0.4,30.37,North,0,0.0,-999.0,83,0.00,,,0.01,Wunderground v.1.15,2013-02-20 13:20:00,
2013-02-20 07:25:00,4.6,0.6,30.37,NNW,338,0.0,-999.0,83,0.00,,,0.01,Wunderground v.1.15,2013-02-20 13:25:00,
2013-02-20 07:30:00,4.8,0.8,30.38,NW,315,1.0,-999.0,83,0.00,,,0.01,Wunderground v.1.15,2013-02-20 13:30:00,
2013-02-20 07:35:00,4.9,0.6,30.38,NNW,338,2.0,-999.0,82,0.00,,,0.01,Wunderground v.1.15,2013-02-20 13:35:00,
2013-02-20 07:40:00,5.2,0.9,30.38,NW,315,1.0,-999.0,82,0.00,,,0.01,Wunderground v.1.15,2013-02-20 13:40:00,
2013-02-20 07:45:00,5.3,1.0,30.38,WSW,248,0.0,-999.0,82,0.00,,,0.01,Wunderground v.1.15,2013-02-20 13:45:00,
2013-02-20 07:50:00,5.5,1.2,30.38,NNW,338,2.0,-999.0,82,0.00,,,0.01,Wunderground v.1.15,2013-02-20 13:50:00,
2013-02-20 07:55:00,5.7,1.4,30.38,WNW,293,2.0,-999.0,82,0.00,,,0.01,Wunderground v.1.15,2013-02-20 13:55:00,
2013-02-20 08:00:00,5.9,1.6,30.39,N/A,-737280,0.0,-999.0,82,0.00,,,0.01,Wunderground v.1.15,2013-02-20 14:00:00,
2013-02-20 08:05:00,6.1,1.8,30.39,North,0,1.0,-999.0,82,0.00,,,0.01,Wunderground v.1.15,2013-02-20 14:05:00,
2013-02-20 08:10:00,6.3,2.0,30.38,N/A,-737280,0.0,-999.0,82,0.00,,,0.01,Wunderground v.1.15,2013-02-20 14:10:00,
2013-02-20 08:15:00,6.6,2.0,30.39,NNW,338,1.0,-999.0,81,0.00,,,0.01,Wunderground v.1.15,2013-02-20 14:15:00,
2013-02-20 08:20:00,6.8,2.2,30.39,NNE,23,1.0,-999.0,81,0.00,,,0.01,Wunderground v.1.15,2013-02-20 14:20:00,
2013-02-20 08:25:00,7.0,2.4,30.39,NW,315,1.0,-999.0,81,0.00,,,0.01,Wunderground v.1.15,2013-02-20 14:25:00,
2013-02-20 08:30:00,7.2,2.6,30.39,NNW,338,3.0,-999.0,81,0.00,,,0.01,Wunderground v.1.15,2013-02-20 14:30:00,
2013-02-20 08:35:00,7.1,2.5,30.38,NNE,23,1.0,-999.0,81,0.00,,,0.01,Wunderground v.1.15,2013-02-20 14:35:00,
2013-02-20 08:40:00,7.3,2.7,30.38,NNW,338,2.0,-999.0,81,0.00,,,0.01,Wunderground v.1.15,2013-02-20 14:40:00,
2013-02-20 08:45:00,7.5,2.9,30.39,NNW,338,2.0,-999.0,81,0.00,,,0.01,Wunderground v.1.15,2013-02-20 14:45:00,
2013-02-20 08:50:00,7.6,3.0,30.39,NNW,338,2.0,-999.0,81,0.00,,,0.01,Wunderground v.1.15,2013-02-20 14:50:00,
2013-02-20 08:55:00,7.9,3.3,30.39,NNE,23,2.0,-999.0,81,0.00,,,0.01,Wunderground v.1.15,2013-02-20 14:55:00,
2013-02-20 09:00:00,8.2,3.6,30.39,NNW,338,1.0,-999.0,81,0.00,,,0.01,Wunderground v.1.15,2013-02-20 15:00:00,
2013-02-20 09:05:00,8.3,3.7,30.38,NNE,23,0.0,-999.0,81,0.00,,,0.01,Wunderground v.1.15,2013-02-20 15:05:00,
2013-02-20 09:10:00,8.7,4.1,30.38,North,0,0.0,-999.0,81,0.00,,,0.01,Wunderground v.1.15,2013-02-20 15:10:00,
2013-02-20 09:15:00,8.8,3.9,30.38,NW,315,1.0,-999.0,80,0.00,,,0.01,Wunderground v.1.15,2013-02-20 15:15:00,
2013-02-20 09:20:00,9.0,4.4,30.38,North,0,2.0,-999.0,81,0.00,,,0.01,Wunderground v.1.15,2013-02-20 15:20:00,
2013-02-20 09:25:00,9.2,4.6,30.39,NNW,338,1.0,-999.0,81,0.00,,,0.01,Wunderground v.1.15,2013-02-20 15:25:00,
2013-02-20 09:30:00,9.5,4.8,30.39,NW,315,1.0,-999.0,81,0.00,,,0.01,Wunderground v.1.15,2013-02-20 15:30:00,
2013-02-20 09:35:00,9.9,5.0,30.39,WNW,293,2.0,-999.0,80,0.00,,,0.01,Wunderground v.1.15,2013-02-20 15:35:00,
2013-02-20 09:40:00,9.6,4.9,30.39,North,350,3.0,3.0,81,0.00,,,0.00,Wunderground v.1.15,2013-02-20 15:40:00,
2013-02-20 09:45:00,9.9,5.2,30.39,North,5,1.0,1.0,81,0.00,,,0.00,Wunderground v.1.15,2013-02-20 15:45:00,
2013-02-20 09:50:00,10.0,5.1,30.39,NNW,342,0.0,3.0,80,0.00,,,0.00,Wunderground v.1.15,2013-02-20 15:50:00,
2013-02-20 09:55:00,10.4,5.7,30.39,NE,46,2.0,5.0,81,0.00,,,0.00,Wunderground v.1.15,2013-02-20 15:55:00,
2013-02-20 10:00:00,10.3,5.4,30.39,WNW,293,0.0,2.0,80,0.00,,,0.00,Wunderground v.1.15,2013-02-20 16:00:00,
2013-02-20 10:05:00,10.7,5.7,30.40,North,360,0.0,2.0,80,0.00,,,0.00,Wunderground v.1.15,2013-02-20 16:05:00,
2013-02-20 10:11:00,11.3,6.3,30.40,North,5,0.0,1.0,80,0.00,,,0.00,Wunderground v.1.15,2013-02-20 16:11:00,
2013-02-20 10:16:00,11.6,6.6,30.40,NNW,346,2.0,4.0,80,0.00,,,0.00,Wunderground v.1.15,2013-02-20 16:16:00,
2013-02-20 10:21:00,11.7,6.7,30.40,North,360,2.0,3.0,80,0.00,,,0.00,Wunderground v.1.15,2013-02-20 16:21:00,
2013-02-20 10:27:00,11.9,6.6,30.40,North,355,1.0,3.0,79,0.00,,,0.00,Wunderground v.1.15,2013-02-20 16:27:00,
2013-02-20 10:32:00,12.0,6.7,30.40,NNW,338,1.0,3.0,79,0.00,,,0.00,Wunderground v.1.15,2013-02-20 16:32:00,
2013-02-20 10:38:00,12.0,6.7,30.40,NNW,346,1.0,5.0,79,0.00,,,0.00,Wunderground v.1.15,2013-02-20 16:38:00,
2013-02-20 10:43:00,12.4,7.1,30.41,NNW,345,3.0,4.0,79,0.00,,,0.00,Wunderground v.1.15,2013-02-20 16:43:00,
2013-02-20 10:48:00,12.8,7.5,30.41,WNW,288,0.0,4.0,79,0.00,,,0.00,Wunderground v.1.15,2013-02-20 16:48:00,
2013-02-20 10:54:00,13.0,7.7,30.41,NNW,327,2.0,3.0,79,0.00,,,0.00,Wunderground v.1.15,2013-02-20 16:54:00,
2013-02-20 10:59:00,13.1,7.5,30.41,NNE,28,1.0,4.0,78,0.00,,,0.00,Wunderground v.1.15,2013-02-20 16:59:00,
2013-02-20 11:04:00,13.2,7.6,30.42,WNW,298,0.0,2.0,78,0.00,,,0.00,Wunderground v.1.15,2013-02-20 17:04:00,
2013-02-20 11:09:00,13.5,8.2,30.42,NNW,335,2.0,3.0,79,0.00,,,0.00,Wunderground v.1.15,2013-02-20 17:09:00,
2013-02-20 11:14:00,13.6,8.0,30.42,NW,311,2.0,3.0,78,0.00,,,0.00,Wunderground v.1.15,2013-02-20 17:14:00,
2013-02-20 11:19:00,13.6,8.0,30.42,North,11,0.0,6.0,78,0.00,,,0.00,Wunderground v.1.15,2013-02-20 17:19:00,
2013-02-20 11:25:00,14.0,8.4,30.42,North,351,0.0,4.0,78,0.00,,,0.00,Wunderground v.1.15,2013-02-20 17:25:00,
2013-02-20 11:30:00,13.9,8.0,30.42,North,355,0.0,1.0,77,0.00,,,0.00,Wunderground v.1.15,2013-02-20 17:30:00,
2013-02-20 11:35:00,14.2,8.6,30.42,NNW,337,2.0,5.0,78,0.00,,,0.00,Wunderground v.1.15,2013-02-20 17:35:00,
2013-02-20 11:41:00,14.4,8.5,30.42,NNE,22,3.0,3.0,77,0.00,,,0.00,Wunderground v.1.15,2013-02-20 17:41:00,
2013-02-20 11:46:00,14.4,8.5,30.43,NNE,21,2.0,3.0,77,0.00,,,0.00,Wunderground v.1.15,2013-02-20 17:46:00,
2013-02-20 11:51:00,14.6,8.7,30.43,NW,306,0.0,1.0,77,0.00,,,0.00,Wunderground v.1.15,2013-02-20 17:51:00,
2013-02-20 11:56:00,14.7,8.5,30.43,NNW,348,5.0,5.0,76,0.00,,,0.00,Wunderground v.1.15,2013-02-20 17:56:00,
2013-02-20 12:01:00,15.0,9.1,30.42,North,355,0.0,3.0,77,0.00,,,0.00,Wunderground v.1.15,2013-02-20 18:01:00,
2013-02-20 12:06:00,15.2,9.3,30.42,West,268,0.0,3.0,77,0.00,,,0.00,Wunderground v.1.15,2013-02-20 18:06:00,
2013-02-20 12:12:00,15.3,9.1,30.42,North,5,0.0,2.0,76,0.00,,,0.00,Wunderground v.1.15,2013-02-20 18:12:00,
2013-02-20 12:17:00,15.1,8.6,30.42,NW,325,1.0,5.0,75,0.00,,,0.00,Wunderground v.1.15,2013-02-20 18:17:00,
2013-02-20 12:23:00,15.0,8.8,30.41,North,11,1.0,4.0,76,0.00,,,0.00,Wunderground v.1.15,2013-02-20 18:23:00,
2013-02-20 12:28:00,14.7,8.2,30.41,NNE,28,6.0,8.0,75,0.00,,,0.00,Wunderground v.1.15,2013-02-20 18:28:00,
2013-02-20 12:33:00,14.8,8.6,30.41,NNW,336,4.0,4.0,76,0.00,,,0.00,Wunderground v.1.15,2013-02-20 18:33:00,
2013-02-20 12:38:00,15.2,9.0,30.41,North,349,1.0,4.0,76,0.00,,,0.00,Wunderground v.1.15,2013-02-20 18:38:00,
2013-02-20 12:43:00,15.3,8.8,30.40,NNW,336,5.0,5.0,75,0.00,,,0.00,Wunderground v.1.15,2013-02-20 18:43:00,
2013-02-20 12:48:00,15.2,8.7,30.40,NE,34,3.0,5.0,75,0.00,,,0.00,Wunderground v.1.15,2013-02-20 18:48:00,
2013-02-20 12:54:00,14.8,8.0,30.40,North,355,3.0,5.0,74,0.00,,,0.00,Wunderground v.1.15,2013-02-20 18:54:00,
2013-02-20 12:59:00,15.3,8.8,30.41,NE,42,2.0,6.0,75,0.00,,,0.00,Wunderground v.1.15,2013-02-20 18:59:00,
2013-02-20 13:04:00,15.4,8.6,30.41,NE,39,2.0,6.0,74,0.00,,,0.00,Wunderground v.1.15,2013-02-20 19:04:00,
2013-02-20 13:09:00,15.4,8.6,30.41,North,355,1.0,7.0,74,0.00,,,0.00,Wunderground v.1.15,2013-02-20 19:09:00,
2013-02-20 13:14:00,15.6,9.1,30.42,NNE,30,2.0,5.0,75,0.00,,,0.00,Wunderground v.1.15,2013-02-20 19:14:00,
2013-02-20 13:19:00,16.0,9.5,30.42,North,360,0.0,5.0,75,0.00,,,0.00,Wunderground v.1.15,2013-02-20 19:19:00,
2013-02-20 13:24:00,16.5,10.0,30.42,NNW,327,0.0,6.0,75,0.00,,,0.00,Wunderground v.1.15,2013-02-20 19:24:00,
2013-02-20 13:29:00,16.9,10.0,30.42,NNW,337,2.0,6.0,74,0.00,,,0.00,Wunderground v.1.15,2013-02-20 19:29:00,
2013-02-20 13:34:00,17.0,10.1,30.43,NNW,342,4.0,4.0,74,0.00,,,0.00,Wunderground v.1.15,2013-02-20 19:34:00,
2013-02-20 13:40:00,17.0,9.8,30.43,NW,317,0.0,1.0,73,0.00,,,0.00,Wunderground v.1.15,2013-02-20 19:40:00,
2013-02-20 13:45:00,17.2,10.3,30.43,NNE,17,2.0,3.0,74,0.00,,,0.00,Wunderground v.1.15,2013-02-20 19:45:00,
2013-02-20 13:50:00,17.4,10.2,30.44,NNE,20,4.0,5.0,73,0.00,,,0.00,Wunderground v.1.15,2013-02-20 19:50:00,
2013-02-20 13:55:00,17.2,9.7,30.44,NNW,331,1.0,6.0,72,0.00,,,0.00,Wunderground v.1.15,2013-02-20 19:55:00,
2013-02-20 14:00:00,17.2,9.7,30.44,North,9,1.0,1.0,72,0.00,,,0.00,Wunderground v.1.15,2013-02-20 20:00:00,
2013-02-20 14:06:00,17.9,11.0,30.44,WNW,301,0.0,2.0,74,0.00,,,0.00,Wunderground v.1.15,2013-02-20 20:06:00,
2013-02-20 14:11:00,18.6,11.4,30.44,WNW,300,1.0,1.0,73,0.00,,,0.00,Wunderground v.1.15,2013-02-20 20:11:00,
2013-02-20 14:16:00,19.3,12.1,30.44,WNW,295,0.0,4.0,73,0.00,,,0.00,Wunderground v.1.15,2013-02-20 20:16:00,
2013-02-20 14:21:00,19.3,11.7,30.44,West,261,0.0,4.0,72,0.00,,,0.00,Wunderground v.1.15,2013-02-20 20:21:00,
2013-02-20 14:27:00,19.2,11.6,30.44,West,271,1.0,4.0,72,0.00,,,0.01,Wunderground v.1.15,2013-02-20 20:27:00,
2013-02-20 14:32:00,19.6,12.0,30.45,West,274,0.0,1.0,72,0.00,,,0.01,Wunderground v.1.15,2013-02-20 20:32:00,
2013-02-20 14:37:00,19.7,12.1,30.45,NW,321,1.0,1.0,72,0.00,,,0.01,Wunderground v.1.15,2013-02-20 20:37:00,
2013-02-20 14:42:00,19.7,11.8,30.45,West,261,2.0,3.0,71,0.00,,,0.01,Wunderground v.1.15,2013-02-20 20:42:00,
2013-02-20 14:48:00,19.5,11.6,30.45,West,281,0.0,3.0,71,0.00,,,0.01,Wunderground v.1.15,2013-02-20 20:48:00,
2013-02-20 14:53:00,19.4,11.5,30.44,West,281,0.0,2.0,71,0.00,,,0.01,Wunderground v.1.15,2013-02-20 20:53:00,
2013-02-20 14:58:00,19.4,11.5,30.44,West,281,0.0,3.0,71,0.00,,,0.01,Wunderground v.1.15,2013-02-20 20:58:00,
2013-02-20 15:03:00,19.7,11.5,30.44,WNW,292,0.0,4.0,70,0.00,,,0.01,Wunderground v.1.15,2013-02-20 21:03:00,
2013-02-20 15:09:00,19.7,11.5,30.44,WNW,298,4.0,4.0,70,0.00,,,0.01,Wunderground v.1.15,2013-02-20 21:09:00,
2013-02-20 15:14:00,19.6,11.7,30.43,North,11,1.0,3.0,71,0.00,,,0.01,Wunderground v.1.15,2013-02-20 21:14:00,
2013-02-20 15:20:00,19.5,11.3,30.43,North,360,0.0,1.0,70,0.00,,,0.01,Wunderground v.1.15,2013-02-20 21:20:00,
2013-02-20 15:25:00,19.5,11.6,30.43,NW,321,0.0,3.0,71,0.00,,,0.01,Wunderground v.1.15,2013-02-20 21:25:00,
2013-02-20 15:30:00,19.7,11.8,30.43,North,349,0.0,3.0,71,0.00,,,0.01,Wunderground v.1.15,2013-02-20 21:30:00,
2013-02-20 15:35:00,19.7,11.5,30.42,NNE,24,0.0,3.0,70,0.00,,,0.01,Wunderground v.1.15,2013-02-20 21:35:00,
2013-02-20 15:40:00,19.7,11.8,30.43,WNW,287,0.0,1.0,71,0.00,,,0.01,Wunderground v.1.15,2013-02-20 21:40:00,
2013-02-20 15:46:00,19.5,11.6,30.43,NW,304,0.0,2.0,71,0.00,,,0.01,Wunderground v.1.15,2013-02-20 21:46:00,
2013-02-20 15:52:00,19.5,11.9,30.43,WNW,286,0.0,1.0,72,0.00,,,0.01,Wunderground v.1.15,2013-02-20 21:52:00,
2013-02-20 15:57:00,19.6,11.7,30.43,NW,321,0.0,2.0,71,0.00,,,0.01,Wunderground v.1.15,2013-02-20 21:57:00,
2013-02-20 16:02:00,19.4,11.5,30.43,NW,319,1.0,4.0,71,0.00,,,0.01,Wunderground v.1.15,2013-02-20 22:02:00,
2013-02-20 16:07:00,19.1,10.9,30.43,WNW,299,0.0,4.0,70,0.00,,,0.01,Wunderground v.1.15,2013-02-20 22:07:00,
2013-02-20 16:12:00,18.9,11.0,30.43,NW,311,0.0,3.0,71,0.00,,,0.01,Wunderground v.1.15,2013-02-20 22:12:00,
2013-02-20 16:17:00,19.5,11.9,30.43,NNW,338,5.0,7.0,72,0.00,,,0.01,Wunderground v.1.15,2013-02-20 22:17:00,
2013-02-20 16:23:00,19.5,11.9,30.43,NNW,342,4.0,6.0,72,0.00,,,0.01,Wunderground v.1.15,2013-02-20 22:23:00,
2013-02-20 16:28:00,19.5,11.9,30.43,NW,315,5.0,12.0,72,0.00,,,0.01,Wunderground v.1.15,2013-02-20 22:28:00,
2013-02-20 16:33:00,19.5,11.9,30.43,NNW,336,3.0,7.0,72,0.00,,,0.01,Wunderground v.1.15,2013-02-20 22:33:00,
2013-02-20 16:39:00,19.5,11.9,30.43,NNW,348,4.0,7.0,72,0.00,,,0.01,Wunderground v.1.15,2013-02-20 22:39:00,
2013-02-20 16:44:00,19.5,11.9,30.43,NNW,333,3.0,6.0,72,0.00,,,0.01,Wunderground v.1.15,2013-02-20 22:44:00,
2013-02-20 16:50:00,19.4,11.8,30.43,NNW,334,4.0,4.0,72,0.00,,,0.01,Wunderground v.1.15,2013-02-20 22:50:00,
2013-02-20 16:56:00,19.3,11.7,30.43,North,350,2.0,6.0,72,0.00,,,0.01,Wunderground v.1.15,2013-02-20 22:56:00,
2013-02-20 17:01:00,19.2,11.6,30.43,NNW,348,0.0,3.0,72,0.00,,,0.01,Wunderground v.1.15,2013-02-20 23:01:00,
2013-02-20 17:06:00,19.1,11.6,30.43,NNW,348,1.0,3.0,72,0.00,,,0.01,Wunderground v.1.15,2013-02-20 23:06:00,
2013-02-20 17:11:00,18.9,11.7,30.43,NNW,348,0.0,2.0,73,0.00,,,0.01,Wunderground v.1.15,2013-02-20 23:11:00,
2013-02-20 17:16:00,18.8,11.6,30.43,NNW,348,0.0,2.0,73,0.00,,,0.01,Wunderground v.1.15,2013-02-20 23:16:00,
2013-02-20 17:21:00,18.6,11.7,30.43,NNW,348,1.0,1.0,74,0.00,,,0.01,Wunderground v.1.15,2013-02-20 23:21:00,
2013-02-20 17:26:00,18.4,11.5,30.43,NNW,348,0.0,1.0,74,0.00,,,0.01,Wunderground v.1.15,2013-02-20 23:26:00,
2013-02-20 17:31:00,18.2,11.3,30.43,NNW,348,0.0,0.0,74,0.00,,,0.01,Wunderground v.1.15,2013-02-20 23:31:00,
2013-02-20 17:37:00,18.0,11.4,30.42,NNW,348,0.0,0.0,75,0.00,,,0.01,Wunderground v.1.15,2013-02-20 23:37:00,
2013-02-20 17:42:00,17.7,11.1,30.42,NNW,348,0.0,1.0,75,0.00,,,0.01,Wunderground v.1.15,2013-02-20 23:42:00,
2013-02-20 17:47:00,17.4,11.1,30.42,NNW,348,0.0,1.0,76,0.00,,,0.01,Wunderground v.1.15,2013-02-20 23:47:00,
2013-02-20 17:52:00,17.0,11.0,30.43,NNW,348,0.0,0.0,77,0.00,,,0.01,Wunderground v.1.15,2013-02-20 23:52:00,
2013-02-20 17:57:00,16.6,10.6,30.43,NNW,348,0.0,0.0,77,0.00,,,0.01,Wunderground v.1.15,2013-02-20 23:57:00,
2013-02-20 18:03:00,16.0,10.6,30.43,NNW,348,0.0,0.0,79,0.00,,,0.01,Wunderground v.1.15,2013-02-21 00:03:00,
2013-02-20 18:08:00,15.5,10.4,30.43,NNW,348,0.0,0.0,80,0.00,,,0.01,Wunderground v.1.15,2013-02-21 00:08:00,
2013-02-20 18:13:00,15.0,10.2,30.43,NNW,348,0.0,0.0,81,0.00,,,0.01,Wunderground v.1.15,2013-02-21 00:13:00,
2013-02-20 18:18:00,14.7,10.2,30.43,NNW,348,0.0,0.0,82,0.00,,,0.01,Wunderground v.1.15,2013-02-21 00:18:00,
2013-02-20 18:23:00,14.4,10.2,30.42,NNW,348,0.0,0.0,83,0.00,,,0.01,Wunderground v.1.15,2013-02-21 00:23:00,
2013-02-20 18:28:00,14.1,9.6,30.42,NNW,348,0.0,0.0,82,0.00,,,0.01,Wunderground v.1.15,2013-02-21 00:28:00,
2013-02-20 18:34:00,13.8,9.9,30.43,NNW,348,0.0,1.0,84,0.00,,,0.01,Wunderground v.1.15,2013-02-21 00:34:00,
2013-02-20 18:40:00,14.4,9.4,30.43,NNE,29,0.0,0.0,80,0.00,,,0.01,Wunderground v.1.15,2013-02-21 00:40:00,
2013-02-20 18:45:00,14.3,9.5,30.43,NNE,29,0.0,0.0,81,0.00,,,0.01,Wunderground v.1.15,2013-02-21 00:45:00,
2013-02-20 18:50:00,14.3,9.5,30.43,NNE,29,0.0,0.0,81,0.00,,,0.01,Wunderground v.1.15,2013-02-21 00:50:00,
2013-02-20 18:55:00,14.4,9.6,30.43,NNE,29,0.0,0.0,81,0.00,,,0.01,Wunderground v.1.15,2013-02-21 00:55:00,
2013-02-20 19:01:00,14.4,9.4,30.43,NNE,29,0.0,0.0,80,0.00,,,0.01,Wunderground v.1.15,2013-02-21 01:01:00,
2013-02-20 19:06:00,14.3,9.3,30.43,NNE,29,0.0,0.0,80,0.00,,,0.01,Wunderground v.1.15,2013-02-21 01:06:00,
2013-02-20 19:11:00,14.2,9.2,30.43,NNE,29,0.0,0.0,80,0.00,,,0.01,Wunderground v.1.15,2013-02-21 01:11:00,
2013-02-20 19:16:00,14.0,11.4,30.43,NNE,29,0.0,0.0,89,0.00,,,0.01,Wunderground v.1.15,2013-02-21 01:16:00,
2013-02-20 19:21:00,13.9,9.1,30.42,NNE,29,0.0,0.0,81,0.00,,,0.01,Wunderground v.1.15,2013-02-21 01:21:00,
2013-02-20 19:26:00,13.8,9.0,30.42,NNE,29,0.0,0.0,81,0.00,,,0.01,Wunderground v.1.15,2013-02-21 01:26:00,
2013-02-20 19:32:00,13.6,8.9,30.42,NNE,29,0.0,0.0,81,0.00,,,0.01,Wunderground v.1.15,2013-02-21 01:32:00,
2013-02-20 19:37:00,11.6,8.5,30.42,NNW,348,0.0,0.0,87,0.00,,,0.01,Wunderground v.1.15,2013-02-21 01:37:00,
2013-02-20 19:42:00,11.5,8.4,30.42,NNW,348,0.0,0.0,87,0.00,,,0.01,Wunderground v.1.15,2013-02-21 01:42:00,
2013-02-20 19:47:00,11.3,8.2,30.42,NNW,348,0.0,0.0,87,0.00,,,0.01,Wunderground v.1.15,2013-02-21 01:47:00,
2013-02-20 19:52:00,11.2,8.1,30.42,NNW,348,0.0,0.0,87,0.00,,,0.01,Wunderground v.1.15,2013-02-21 01:52:00,
2013-02-20 19:57:00,11.1,8.2,30.42,NNW,348,0.0,0.0,88,0.00,,,0.01,Wunderground v.1.15,2013-02-21 01:57:00,
2013-02-20 20:02:00,10.9,8.0,30.42,NNW,348,0.0,0.0,88,0.00,,,0.01,Wunderground v.1.15,2013-02-21 02:02:00,
2013-02-20 20:07:00,10.8,7.9,30.42,NNW,348,0.0,0.0,88,0.00,,,0.01,Wunderground v.1.15,2013-02-21 02:07:00,
2013-02-20 20:13:00,10.6,7.7,30.42,NNW,348,0.0,0.0,88,0.00,,,0.01,Wunderground v.1.15,2013-02-21 02:13:00,
2013-02-20 20:18:00,10.5,7.6,30.42,NNW,348,0.0,0.0,88,0.00,,,0.01,Wunderground v.1.15,2013-02-21 02:18:00,
2013-02-20 20:23:00,10.5,7.6,30.42,NNW,348,0.0,0.0,88,0.00,,,0.01,Wunderground v.1.15,2013-02-21 02:23:00,
2013-02-20 20:28:00,10.5,7.6,30.42,NNW,348,0.0,0.0,88,0.00,,,0.01,Wunderground v.1.15,2013-02-21 02:28:00,
2013-02-20 20:33:00,10.6,8.0,30.42,NNW,348,0.0,0.0,89,0.00,,,0.01,Wunderground v.1.15,2013-02-21 02:33:00,
2013-02-20 20:39:00,10.8,8.2,30.41,NNW,348,0.0,0.0,89,0.00,,,0.01,Wunderground v.1.15,2013-02-21 02:39:00,
2013-02-20 20:44:00,10.9,8.3,30.42,NNW,348,0.0,0.0,89,0.00,,,0.01,Wunderground v.1.15,2013-02-21 02:44:00,
2013-02-20 20:49:00,10.7,8.1,30.42,NNW,348,0.0,0.0,89,0.00,,,0.01,Wunderground v.1.15,2013-02-21 02:49:00,
2013-02-20 20:54:00,10.6,8.0,30.42,NNW,348,0.0,0.0,89,0.00,,,0.01,Wunderground v.1.15,2013-02-21 02:54:00,
2013-02-20 21:00:00,10.4,7.8,30.42,NNW,348,0.0,0.0,89,0.00,,,0.01,Wunderground v.1.15,2013-02-21 03:00:00,
2013-02-20 21:05:00,10.2,7.6,30.42,NNW,348,0.0,0.0,89,0.00,,,0.01,Wunderground v.1.15,2013-02-21 03:05:00,
2013-02-20 21:10:00,10.0,7.2,30.42,NNW,348,0.0,0.0,88,0.00,,,0.01,Wunderground v.1.15,2013-02-21 03:10:00,
2013-02-20 21:15:00,9.8,7.0,30.42,NNW,348,0.0,0.0,88,0.00,,,0.01,Wunderground v.1.15,2013-02-21 03:15:00,
2013-02-20 21:21:00,9.5,6.7,30.42,NNW,348,0.0,0.0,88,0.00,,,0.01,Wunderground v.1.15,2013-02-21 03:21:00,
2013-02-20 21:26:00,9.4,6.8,30.43,NNW,348,0.0,0.0,89,0.00,,,0.01,Wunderground v.1.15,2013-02-21 03:26:00,
2013-02-20 21:32:00,9.2,6.6,30.43,NNW,348,0.0,0.0,89,0.00,,,0.01,Wunderground v.1.15,2013-02-21 03:32:00,
2013-02-20 21:37:00,8.9,6.1,30.43,NNW,348,0.0,0.0,88,0.00,,,0.01,Wunderground v.1.15,2013-02-21 03:37:00,
2013-02-20 21:42:00,8.5,5.7,30.43,NNW,348,0.0,0.0,88,0.00,,,0.01,Wunderground v.1.15,2013-02-21 03:42:00,
2013-02-20 21:47:00,8.2,5.4,30.43,NNW,348,0.0,0.0,88,0.00,,,0.01,Wunderground v.1.15,2013-02-21 03:47:00,
2013-02-20 21:52:00,8.0,5.2,30.43,NNW,348,0.0,0.0,88,0.00,,,0.01,Wunderground v.1.15,2013-02-21 03:52:00,
2013-02-20 21:58:00,7.8,5.0,30.43,NNW,348,0.0,0.0,88,0.00,,,0.01,Wunderground v.1.15,2013-02-21 03:58:00,
2013-02-20 22:03:00,7.6,4.8,30.43,NNW,348,0.0,0.0,88,0.00,,,0.01,Wunderground v.1.15,2013-02-21 04:03:00,
2013-02-20 22:08:00,7.5,4.7,30.43,NNW,348,0.0,0.0,88,0.00,,,0.01,Wunderground v.1.15,2013-02-21 04:08:00,
2013-02-20 22:13:00,9.7,6.9,30.43,NNE,29,0.0,0.0,88,0.00,,,0.01,Wunderground v.1.15,2013-02-21 04:13:00,
2013-02-20 22:18:00,9.7,6.9,30.43,NNE,29,0.0,0.0,88,0.00,,,0.01,Wunderground v.1.15,2013-02-21 04:18:00,
2013-02-20 22:23:00,9.8,7.0,30.44,NNE,29,0.0,0.0,88,0.00,,,0.01,Wunderground v.1.15,2013-02-21 04:23:00,
2013-02-20 22:29:00,9.1,6.0,30.44,NNE,29,0.0,0.0,87,0.00,,,0.01,Wunderground v.1.15,2013-02-21 04:29:00,
2013-02-20 22:34:00,8.5,5.4,30.44,NNE,29,0.0,0.0,87,0.00,,,0.01,Wunderground v.1.15,2013-02-21 04:34:00,
2013-02-20 22:39:00,8.0,4.9,30.44,NNE,29,0.0,0.0,87,0.00,,,0.01,Wunderground v.1.15,2013-02-21 04:39:00,
2013-02-20 22:44:00,7.8,4.7,30.44,NNE,29,0.0,0.0,87,0.00,,,0.01,Wunderground v.1.15,2013-02-21 04:44:00,
2013-02-20 22:49:00,7.6,4.5,30.44,NNE,29,0.0,0.0,87,0.00,,,0.01,Wunderground v.1.15,2013-02-21 04:49:00,
2013-02-20 22:54:00,7.3,4.5,30.44,NNE,29,0.0,0.0,88,0.00,,,0.01,Wunderground v.1.15,2013-02-21 04:54:00,
2013-02-20 23:00:00,7.5,4.7,30.44,NNE,29,0.0,0.0,88,0.00,,,0.01,Wunderground v.1.15,2013-02-21 05:00:00,
2013-02-20 23:01:00,7.4,4.6,30.44,NNE,29,0.0,0.0,88,0.00,,,0.01,Wunderground v.1.15,2013-02-21 05:01:00,
2013-02-20 23:06:00,7.4,4.6,30.44,NNE,29,0.0,0.0,88,0.00,,,0.01,Wunderground v.1.15,2013-02-21 05:06:00,
2013-02-20 23:11:00,7.2,4.4,30.44,NNE,29,0.0,0.0,88,0.00,,,0.01,Wunderground v.1.15,2013-02-21 05:11:00,
2013-02-20 23:17:00,7.2,4.4,30.44,NNE,29,0.0,0.0,88,0.00,,,0.01,Wunderground v.1.15,2013-02-21 05:17:00,
2013-02-20 23:22:00,7.3,4.7,30.44,NNE,29,0.0,0.0,89,0.00,,,0.01,Wunderground v.1.15,2013-02-21 05:22:00,
2013-02-20 23:27:00,7.3,4.7,30.45,NNE,29,0.0,0.0,89,0.00,,,0.01,Wunderground v.1.15,2013-02-21 05:27:00,
2013-02-20 23:32:00,7.2,4.4,30.45,NNE,29,0.0,0.0,88,0.00,,,0.01,Wunderground v.1.15,2013-02-21 05:32:00,
2013-02-20 23:37:00,7.0,4.2,30.45,NNE,29,0.0,0.0,88,0.00,,,0.01,Wunderground v.1.15,2013-02-21 05:37:00,
2013-02-20 23:42:00,6.7,4.1,30.45,NNE,29,0.0,0.0,89,0.00,,,0.01,Wunderground v.1.15,2013-02-21 05:42:00,
2013-02-20 23:47:00,6.4,3.6,30.45,NNE,29,0.0,0.0,88,0.00,,,0.01,Wunderground v.1.15,2013-02-21 05:47:00,
2013-02-20 23:52:00,6.4,3.9,30.45,NNE,29,0.0,0.0,89,0.00,,,0.01,Wunderground v.1.15,2013-02-21 05:52:00,
2013-02-20 23:57:00,6.4,3.9,30.45,NNE,29,0.0,0.0,89,0.00,,,0.01,Wunderground v.1.15,2013-02-21 05:57:00,